[[{"header":{"parameterUnit":"m.s-1","parameterCategory":1,"la1":30.2991,"la2":30.254,"lo1":-89.0895,"lo2":-89.0444,"dy":0.0017,"dx":0.0017,"nx":28,"ny":28,"refTime":"2025-01-18T03:00:00:Z","depth":0,"parameterNumber":2,"parameterNumberName":"U-component_of_WINDS"},"data":[0,0,0,0,0,0,0,0,0,0,0,0,0,0,0,0,0,0,0,0,0,0,0,0,0,0,0,0,0,0,0,0,0,0,0,0,0,0,0,0,0,0,0,0,0,0,0,0,0,0,0,0,0,0,0,0,0,0,1.7849,1.7849,0,1.7869,1.7869,1.7869,1.7818,1.7816,1.7814,1.7813,1.7836,1.7838,1.784,0,0,0,0,0,0,0,0,0,0,0,0,0,1.777,1.7772,1.7849,1.7849,1.785,1.7869,1.7869,1.7869,1.7818,1.7816,1.7814,1.7812,1.7836,1.7838,1.7841,0,0,0,0,0,0,0,0,0,0,0,0,0,1.7799,1.7773,1.7849,1.7826,1.7824,1.7869,1.7869,1.7869,1.7818,1.7816,1.7813,1.7811,1.7835,1.7838,1.7841,1.791,0,0,1.7851,1.7852,0,0,0,0,0,0,0,0,1.7797,1.7802,1.7829,1.7828,1.7826,1.7838,1.785,1.7883,1.7819,1.7821,1.7813,1.781,1.7839,1.7842,1.7851,1.7911,1.7912,1.7851,1.7853,1.7854,1.7855,0,0,0,0,0,0,0,1.7795,1.7801,1.7857,1.783,1.7828,1.7816,1.7817,1.7856,1.7844,1.782,1.7817,1.782,1.7838,1.7848,1.7851,1.7912,1.7851,1.7854,1.7856,1.7857,1.803,1.8032,0,0,0,0,0,0,1.7796,1.7799,1.7856,1.7858,1.7805,1.7819,1.7821,1.7837,1.7843,1.7841,1.7822,1.7817,1.7844,1.7847,1.7852,1.7933,1.7854,1.7857,1.7859,1.8027,1.8031,1.8033,0,0,0,0,0,0,1.7794,1.7801,1.7856,1.7827,1.7833,1.7823,1.7842,1.7838,1.7849,1.7844,1.7842,1.7834,1.7842,1.7847,1.7896,1.7933,1.7859,1.7862,1.8024,1.8028,1.8032,1.8096,0,0,0,0,0,0,1.7792,1.7801,1.7826,1.7828,1.7835,1.7898,1.7844,1.7841,1.7854,1.7848,1.7855,1.7854,1.784,1.7891,1.7899,1.7936,1.7864,1.8021,1.8026,1.8031,1.8091,1.8102,1.8112,0,0,0,0,0,1.779,1.7844,1.7828,1.7835,1.7866,1.7901,1.7904,1.7887,1.7857,1.7883,1.788,1.7854,1.7928,1.7896,1.7905,1.7944,1.8018,1.8025,1.803,1.8086,1.81,1.8111,0,0,0,0,0,0,1.7848,1.7844,1.7826,1.7882,1.7892,1.7892,1.7924,1.7902,1.7921,1.7915,1.7894,1.7896,1.7949,1.7951,1.7916,1.8011,1.7968,1.7976,1.8008,1.8021,1.8031,1.803,1.7867,0,0,0,0,0,1.7867,1.7894,1.789,1.794,1.7946,1.7934,1.7948,1.7934,1.7944,1.7948,1.7948,1.796,1.7985,1.8003,1.8026,1.809,1.8092,1.8121,1.8132,1.814,1.8148,1.8183,1.8197,1.8053,1.8053,1.8053,0,0,1.7907,1.7909,1.7927,1.7952,1.7958,1.7987,1.7938,1.7971,1.7994,1.7953,1.7999,1.8,1.8011,1.8068,1.8093,1.8071,1.8188,1.8148,1.8155,1.8158,1.8191,1.8205,1.8217,1.8057,1.8056,1.8056,0,0,1.7996,1.7999,1.8042,1.8049,1.8058,1.805,1.806,1.8063,1.8062,1.8107,1.8078,1.8104,1.8149,1.8158,1.8169,1.8262,1.8239,1.827,1.8325,1.836,1.8371,1.8381,1.8415,1.8428,1.8277,1.8278,1.8278,0,1.8046,1.8088,1.8067,1.8103,1.8115,1.8079,1.8122,1.813,1.8147,1.8157,1.8132,1.8188,1.8193,1.8252,1.8275,1.8284,1.8296,1.827,1.8371,1.8381,1.839,1.8422,1.8435,1.8281,1.8281,1.8281,1.828,0,1.8149,1.8179,1.8213,1.8229,1.8245,1.8285,1.8271,1.829,1.8274,1.8269,1.8316,1.8321,1.8345,1.8357,1.8343,1.8415,1.8401,1.8374,1.8331,1.8408,1.8438,1.845,1.8287,1.8286,1.8284,1.8283,0,0,1.8275,1.8279,1.8292,1.83,1.8307,1.8331,1.8369,1.8392,1.8409,1.8422,1.8455,1.8493,1.8468,1.8481,1.8467,1.8497,1.8572,1.8466,1.8466,1.8487,1.8653,1.8674,1.8689,1.8556,1.8558,1.856,1.8653,0,1.8364,1.8429,1.8411,1.8477,1.8505,1.8471,1.8505,1.8514,1.851,1.8535,1.8531,1.8559,1.8523,1.8531,1.8559,1.8557,1.8605,1.855,1.8588,1.8589,1.8587,1.8705,1.8727,1.8814,1.8664,1.8666,1.8668,0,1.8476,1.8492,1.8561,1.8564,1.8576,1.8606,1.8626,1.8649,1.8659,1.8654,1.8668,1.8648,1.8688,1.8643,1.8698,1.8661,1.8675,1.8676,1.8679,1.8683,1.8634,1.8713,1.8841,1.8855,1.8686,1.8684,1.8683,0,1.8563,1.8602,1.8648,1.8655,1.8661,1.8683,1.8686,1.8694,1.8709,1.8726,1.8736,1.8759,1.8771,1.879,1.8777,1.8745,1.8834,1.8788,1.8833,1.8833,1.8854,1.8853,1.8987,1.8861,1.8861,1.8861,1.886,0,1.8664,1.8707,1.8687,1.8716,1.8764,1.8744,1.8792,1.8792,1.8799,1.8828,1.8799,1.8827,1.8808,1.8835,1.8825,1.8873,1.8878,1.8877,1.8874,1.888,1.888,1.889,1.8884,1.8864,1.8863,1.8863,1.8862,0,1.8769,1.8757,1.8806,1.8807,1.8808,1.8843,1.8844,1.8872,1.8866,1.8903,1.891,1.8902,1.8932,1.892,1.8952,1.8946,1.9007,1.8995,1.9003,1.9001,1.9046,1.9043,1.9193,1.9212,1.9072,1.9074,1.9075,0,1.8835,1.8868,1.8872,1.8889,1.8894,1.8921,1.8937,1.8918,1.8935,1.8949,1.8975,1.9002,1.9023,1.9073,1.907,1.9095,1.9085,1.9136,1.9088,1.9094,1.9087,1.9086,1.909,1.9146,1.9147,1.9149,1.915,0,1.8954,1.8946,1.8969,1.899,1.9008,1.9024,1.9037,1.9053,1.9035,1.9056,1.9086,1.9102,1.9135,1.9163,1.9185,1.919,1.9168,1.9164,1.9176,1.9183,1.9187,1.9187,1.903,1.9161,1.916,1.9159,1.9159,1.9158,1.9042,1.907,1.9077,1.9104,1.9112,1.9125,1.9151,1.9148,1.9172,1.9197,1.9184,1.922,1.923,1.9257,1.9265,1.9293,1.9273,1.929,1.9294,1.9299,1.9305,1.9182,1.9297,1.9296,1.9296,1.9296,1.9295,0,1.916,1.9163,1.9188,1.9207,1.9228,1.9204,1.9218,1.9237,1.9268,1.9279,1.93,1.9335,1.9362,1.9362,1.9387,1.941,1.94,1.9417,1.9416,1.9418,1.9321,1.9309,1.9425,1.9425,1.9425,1.9424,1.9424,1.9424,1.9224,1.927,1.9264,1.9314,1.9317,1.9351,1.9361,1.9373,1.9382,1.9422,1.9444,1.9443,1.945,1.9476,1.95,1.9499,1.9511,1.9532,1.9527,1.9437,1.9424,1.9412,1.9401,1.9534,1.9534,1.9622,1.9623,1.9623]},{"header":{"parameterUnit":"m.s-1","parameterCategory":1,"la1":30.2991,"la2":30.254,"lo1":-89.0895,"lo2":-89.0444,"dy":0.0017,"dx":0.0017,"nx":28,"ny":28,"refTime":"2025-01-18T03:00:00:Z","depth":0,"parameterNumber":3,"parameterNumberName":"V-component_of_WINDS"},"data":[0,0,0,0,0,0,0,0,0,0,0,0,0,0,0,0,0,0,0,0,0,0,0,0,0,0,0,0,0,0,0,0,0,0,0,0,0,0,0,0,0,0,0,0,0,0,0,0,0,0,0,0,0,0,0,0,0,0,3.0392,3.0392,0,3.046,3.0461,3.0462,3.044,3.0439,3.0438,3.0436,3.0507,3.051,3.0514,0,0,0,0,0,0,0,0,0,0,0,0,0,3.0243,3.0246,3.0392,3.0392,3.0393,3.046,3.0461,3.0462,3.0441,3.0439,3.0437,3.0436,3.0506,3.051,3.0514,0,0,0,0,0,0,0,0,0,0,0,0,0,3.0309,3.0247,3.0391,3.0391,3.0391,3.046,3.0461,3.0462,3.0441,3.0439,3.0437,3.0435,3.0505,3.051,3.0514,3.0588,0,0,3.0529,3.0531,0,0,0,0,0,0,0,0,3.0306,3.0315,3.039,3.0391,3.0392,3.0439,3.0435,3.0504,3.0442,3.0422,3.0436,3.0434,3.0487,3.0493,3.051,3.0591,3.0594,3.053,3.0533,3.0535,3.0536,0,0,0,0,0,0,0,3.0301,3.0312,3.0419,3.0391,3.0392,3.0387,3.0394,3.0448,3.0466,3.0424,3.0422,3.0431,3.0487,3.0506,3.0512,3.0595,3.053,3.0534,3.0537,3.0539,3.074,3.0743,0,0,0,0,0,0,3.0296,3.0308,3.0416,3.0421,3.0342,3.0392,3.0399,3.0426,3.0465,3.0469,3.0432,3.0429,3.0499,3.0506,3.0514,3.0604,3.0535,3.0539,3.0542,3.0738,3.0741,3.0744,0,0,0,0,0,0,3.0293,3.0306,3.0414,3.0364,3.0377,3.0397,3.0427,3.0429,3.0448,3.0472,3.0475,3.0449,3.0497,3.0508,3.057,3.0606,3.0542,3.0546,3.0735,3.0739,3.0742,3.0782,0,0,0,0,0,0,3.0288,3.0305,3.0333,3.0365,3.038,3.0468,3.0429,3.0432,3.0456,3.0453,3.0488,3.0492,3.0496,3.0563,3.0575,3.0611,3.055,3.0732,3.0737,3.0741,3.0778,3.0787,3.0795,0,0,0,0,0,3.0283,3.0341,3.0334,3.0347,3.0415,3.047,3.0479,3.0483,3.0459,3.0488,3.0503,3.049,3.06,3.0569,3.0583,3.0621,3.073,3.0735,3.0741,3.0774,3.0785,3.0794,0,0,0,0,0,0,3.0313,3.0345,3.0338,3.0408,3.0436,3.0466,3.0503,3.0494,3.053,3.0526,3.0529,3.0537,3.0602,3.0617,3.0583,3.0695,3.0661,3.067,3.0682,3.0693,3.0701,3.0696,3.0554,0,0,0,0,0,3.0328,3.0369,3.0395,3.0455,3.0469,3.0483,3.0507,3.0508,3.0538,3.055,3.0569,3.0599,3.064,3.0667,3.0706,3.078,3.0787,3.0813,3.0821,3.0828,3.0835,3.0876,3.0888,3.0762,3.0762,3.0761,0,0,3.0359,3.0382,3.0408,3.0461,3.0483,3.0527,3.0494,3.0541,3.0573,3.0557,3.0617,3.0633,3.0666,3.0734,3.0766,3.075,3.0872,3.0835,3.084,3.0844,3.0883,3.0895,3.0906,3.0765,3.0765,3.0764,0,0,3.0438,3.0459,3.0511,3.0533,3.0567,3.0576,3.0589,3.062,3.0629,3.069,3.0679,3.0717,3.0787,3.0812,3.0833,3.0921,3.0911,3.0933,3.0977,3.1017,3.1027,3.1036,3.1068,3.108,3.0941,3.0941,3.0941,0,3.0472,3.0537,3.0539,3.0587,3.0611,3.0598,3.0651,3.0673,3.0718,3.0735,3.0716,3.0804,3.0825,3.09,3.0921,3.0939,3.0954,3.093,3.1025,3.1034,3.1043,3.1073,3.1085,3.0943,3.0943,3.0943,3.0942,0,3.0578,3.0622,3.066,3.0704,3.0732,3.0783,3.0793,3.0821,3.0819,3.083,3.0892,3.0917,3.0961,3.0978,3.0977,3.1053,3.1042,3.1024,3.0991,3.1057,3.1086,3.1098,3.0947,3.0946,3.0945,3.0945,0,0,3.0678,3.0722,3.0736,3.0756,3.0792,3.0827,3.0876,3.0919,3.0944,3.0975,3.1017,3.1077,3.1061,3.1085,3.1086,3.1121,3.119,3.1099,3.11,3.1116,3.1276,3.129,3.1303,3.1183,3.1185,3.1187,3.1273,0,3.0761,3.0848,3.0851,3.0931,3.0973,3.0961,3.1004,3.1031,3.1043,3.108,3.1093,3.1135,3.1111,3.1125,3.1159,3.1174,3.1222,3.1168,3.1223,3.1225,3.1216,3.1318,3.1333,3.1414,3.1285,3.1287,3.1288,0,3.0869,3.0904,3.0988,3.1018,3.1036,3.1075,3.1114,3.115,3.118,3.1186,3.1213,3.1209,3.126,3.1225,3.1296,3.1259,3.1281,3.1292,3.1295,3.1302,3.1261,3.1329,3.144,3.1452,3.1306,3.1304,3.1303,0,3.0936,3.1003,3.1062,3.1079,3.1116,3.1144,3.116,3.1188,3.1214,3.1248,3.1265,3.1305,3.1327,3.1358,3.1365,3.1338,3.1437,3.1401,3.1444,3.1444,3.1466,3.1465,3.1584,3.1479,3.1478,3.1478,3.1478,0,3.1028,3.1081,3.1092,3.1129,3.1187,3.119,3.1248,3.1262,3.1287,3.1327,3.1318,3.1356,3.1362,3.14,3.1406,3.1464,3.1474,3.1481,3.1482,3.1483,3.1482,3.1498,3.1493,3.1481,3.1481,3.148,3.148,0,3.1113,3.1123,3.1187,3.1216,3.1224,3.1266,3.1291,3.1326,3.1336,3.1387,3.1398,3.1415,3.146,3.1469,3.1523,3.1526,3.1596,3.1591,3.1586,3.1586,3.1629,3.1625,3.1763,3.1782,3.1664,3.1665,3.1666,0,3.1172,3.1212,3.1245,3.1271,3.1289,3.133,3.1356,3.136,3.1388,3.1425,3.1456,3.15,3.1536,3.1609,3.1626,3.1666,3.1663,3.1709,3.1669,3.1669,3.1665,3.1663,3.1668,3.1717,3.1718,3.1719,3.172,0,3.1276,3.1279,3.1317,3.1357,3.1388,3.1419,3.1449,3.1471,3.1479,3.151,3.1556,3.1584,3.1638,3.1683,3.1724,3.1741,3.1732,3.1732,3.1744,3.1746,3.1742,3.1746,3.1608,3.1729,3.1728,3.1727,3.1727,3.1727,3.1351,3.1386,3.1415,3.1458,3.148,3.1508,3.1543,3.1557,3.1596,3.164,3.164,3.1691,3.172,3.1774,3.1794,3.1834,3.1819,3.1837,3.1842,3.1846,3.1851,3.1734,3.1841,3.1841,3.184,3.184,3.184,0,3.1456,3.1474,3.1513,3.1555,3.1588,3.1576,3.1609,3.1638,3.1682,3.171,3.1745,3.1798,3.1841,3.1861,3.1903,3.1931,3.1928,3.1942,3.1941,3.1945,3.186,3.1846,3.1944,3.1944,3.1944,3.1944,3.1944,3.1943,3.1514,3.1574,3.158,3.165,3.1668,3.1717,3.1737,3.1763,3.1785,3.1845,3.188,3.1892,3.1917,3.1961,3.2,3.2005,3.2021,3.2037,3.204,3.1961,3.1951,3.1941,3.1927,3.2041,3.2041,3.2122,3.2123,3.2123]}]]